Tracking 18851 objects as of 24-Nov-2017
HD Live streaming from Space Station
objects crossing your sky now

NIMBUS 2 DEB

Track NIMBUS 2 DEB now!
10-day predictions


NORAD ID: 27406
Int'l Code: 1966-040AL
Perigee: 1,028.0 km
Apogee: 1,094.1 km
Inclination: 100.3 °
Period: 106.3 minutes
Semi major axis: 7432 km
RCS: 0.0057 m2 (small)
Launch date: May 15, 1966
Source: United States (US)
Launch site: AIR FORCE WESTERN TEST RANGE (AFWTR)

Note: This is SATELLITE DEBRIS
aabbcc
Your satellite tracking list
Your tracking list is empty




NASA's NSSDC Master Catalog

Two Line Element Set (TLE):
1 27406U 66040AL  17317.35150525  .00000888  00000-0  13519-2 0  9995
2 27406 100.3166 149.6589 0044477  36.5102  86.6745 13.54997326656544
Source of the keplerian elements: AFSPC